Location: Unspecified
(42.7905°N, 0.0000°E)
Time: 03:28:06
(UTC+00:00)

Orbcomm D8 (FM36) - Visible Passes

Search period start: 04 April 2026 00:00
Search period end: 14 April 2026 00:00
Orbit: 759 x 765 km, 45.0° (Epoch: 29 March)

Date Brightness Start Highest point End Pass type
(mag) Time Alt. Az. Time Alt. Az. Time Alt. Az.
4 Apr 11.2 01:18:58 12° ENE 01:18:58 12° ENE 01:19:20 10° ENE visible
4 Apr 8.6 02:59:00 68° NNW 02:59:14 69° N 03:04:37 10° E visible
4 Apr 8.5 04:39:12 10° WNW 04:44:37 90° N 04:50:01 10° ESE visible
5 Apr 9.5 02:19:31 44° ENE 02:19:31 44° ENE 02:23:12 10° ENE visible
5 Apr 8.5 03:59:32 21° WNW 04:03:14 81° NNE 04:08:38 10° ESE visible
6 Apr 10.6 01:40:03 21° ENE 01:40:03 21° ENE 01:41:48 10° ENE visible
6 Apr 8.5 03:20:05 43° WNW 03:21:50 75° N 03:27:13 10° E visible
6 Apr 8.8 05:01:42 10° WNW 05:06:55 52° SSW 05:12:08 10° SE visible
7 Apr 8.7 02:40:43 69° NNE 02:40:43 69° NNE 02:45:48 10° E visible
7 Apr 8.5 04:20:46 13° WNW 04:25:37 63° SSW 04:30:55 10° SE visible
8 Apr 9.9 02:01:26 33° ENE 02:01:26 33° ENE 02:04:23 10° E visible
8 Apr 8.4 03:41:29 29° WNW 03:44:16 74° SSW 03:49:38 10° ESE visible
9 Apr 11.0 01:22:17 13° E 01:22:17 13° E 01:22:56 10° E visible
9 Apr 8.3 03:02:21 72° W 03:02:55 85° SSW 03:08:18 10° ESE visible
9 Apr 9.3 04:43:00 10° W 04:47:40 30° SW 04:52:19 10° SSE visible
10 Apr 9.4 02:23:25 42° ESE 02:23:25 42° ESE 02:26:55 10° ESE visible
10 Apr 9.0 04:03:30 21° W 04:06:25 38° SSW 04:11:20 10° SSE visible
11 Apr 10.8 01:44:44 14° E 01:44:44 14° E 01:45:31 10° E visible
11 Apr 8.7 03:24:50 46° SW 03:25:08 47° SSW 03:30:15 10° SE visible
11 Apr 10.3 19:41:47 10° SSE 19:43:02 12° SE 19:43:02 12° SE visible
11 Apr 10.9 21:23:07 10° SW 21:23:12 10° SW 21:23:12 10° SW visible
12 Apr 9.7 02:46:27 28° SE 02:46:27 28° SE 02:49:04 10° SE visible
12 Apr 10.0 04:26:35 14° WSW 04:28:12 16° SW 04:31:25 10° S visible
12 Apr 9.3 20:42:01 10° SW 20:45:30 32° S 20:45:30 32° S visible
13 Apr 10.0 03:48:33 19° SSW 03:48:33 19° SSW 03:50:57 10° S visible
13 Apr 9.2 20:01:01 10° SSW 20:05:42 31° SE 20:07:32 25° ESE visible
13 Apr 9.9 21:45:06 10° WSW 21:47:40 29° WSW 21:47:40 29° WSW visible
